Regional Weather Roundup
Issued by NWS

Home | Current Version | Previous Version | Text Only | Print | Product List | Glossary Off
Versions: 1 2 3 4 5 6 7 8 9 10 11 12 13 14 15 16 17 18 19 20 21 22 23 24 25 26 27 28 29 30 31 32 33 34 35 36 37 38 39 40 41 42 43 44 45 46 47 48 49 50

000
ASUS43 KFSD 240102
RWRSD

WEATHER ROUNDUP FOR SOUTH DAKOTA
NATIONAL WEATHER SERVICE SIOUX FALLS SD
800 PM CDT WED APR 23 2014

NOTE: "FAIR" INDICATES FEW OR NO CLOUDS BELOW 12,000 FEET WITH NO
SIGNIFICANT WEATHER AND/OR OBSTRUCTIONS TO VISIBILITY.


SDZ001>005-009-010-012>017-240200-
NORTHWEST AND NORTH CENTRAL SOUTH DAKOTA

CITY           SKY/WX    TMP DP  RH WIND       PRES   REMARKS
BUFFALO          N/A     52  29  41 W26       29.64S
FAITH            N/A     52  35  52 NW21      29.69R
MOBRIDGE       CLOUDY    56  40  55 NW17      29.62R
$$

SDZ012>016-024>037-041>051-057-063-072>074-240200-
SOUTHWEST AND SOUTH CENTRAL SOUTH DAKOTA

CITY           SKY/WX    TMP DP  RH WIND       PRES   REMARKS
RAPID CTY ARPT MOCLDY    54  34  46 N24G31    29.69R
PIERRE         CLOUDY    57  38  48 NW22G32   29.61R
CUSTER         MOCLDY    48  23  37 W10G17    29.74R
ELLSWORTH AFB  PTCLDY    56  34  44 N21       29.71R
PHILIP         CLOUDY    55  38  52 N17       29.66R
PINE RIDGE     CLOUDY    53  38  56 N15       29.69R
WINNER         FAIR      63  43  48 NW30G40   29.58R
$$

SDZ004>011-016>023-039-040-240200-
NORTHEAST SOUTH DAKOTA

CITY           SKY/WX    TMP DP  RH WIND       PRES   REMARKS
ABERDEEN       MOCLDY    48  41  76 E17G23    29.65R
WATERTOWN      CLOUDY    47  38  71 SE21G32   29.67S
SISSETON         N/A     42  37  82 SE22G28   29.74R
$$

SDZ017-020-022-023-036>040-048>070-240200-
SOUTHEAST SOUTH DAKOTA

CITY           SKY/WX    TMP DP  RH WIND       PRES   REMARKS
SIOUX FALLS    MOCLDY    54  40  59 SE18      29.66R
HURON          MOCLDY    63  42  46 SE16G28   29.56R
CHAMBERLAIN      N/A     70  46  42 N7        29.53R
MITCHELL       CLOUDY    63  44  50 SE22G31   29.57R
YANKTON        MOCLDY    61  43  51 E22G29    29.61R
$$

ABBREVIATIONS USED IN REMARKS
   TC - TEMPERATURE IN CELSIUS
  WCI - WIND CHILL INDEX
   HX - HEAT INDEX
  VSB - VISIBILITY




USA.gov is the U.S. government's official web portal to all federal, state and local government web resources and services.